Location: Unspecified
(0.0000°N, 0.0000°E)
Time: 01:06:27
(UTC+00:00)

Vanguard 1 - Visible Passes

Search period start: 19 April 2015 00:00
Search period end: 29 April 2015 00:00
Orbit: 652 x 3833 km, 34.2° (Epoch: 17 April)

Date Brightness Start Highest point End Pass type
(mag) Time Alt. Az. Time Alt. Az. Time Alt. Az.
19 Apr 13.5 01:33:06 33° SE 01:33:06 33° SE 01:50:30 10° E visible
19 Apr 12.8 03:45:54 31° SW 04:00:39 73° SE 04:18:46 10° ENE visible
19 Apr 12.0 18:20:26 10° WSW 18:25:29 25° SSW 18:32:56 10° SSE visible
19 Apr 13.3 20:47:30 10° SSW 20:51:33 12° S 20:52:02 12° S visible
20 Apr 13.3 01:53:42 41° SSE 01:53:42 41° SSE 02:14:13 10° E visible
20 Apr 12.7 04:06:30 28° SW 04:22:47 88° SE 04:40:27 10° NE visible
20 Apr 12.4 18:43:11 10° WSW 18:47:41 17° SSW 18:53:37 10° SSE visible
20 Apr 13.4 21:11:52 10° S 21:12:02 10° S 21:12:02 10° S visible
21 Apr 14.2 00:01:29 11° ESE 00:01:29 11° ESE 00:01:59 10° ESE visible
21 Apr 13.1 02:14:16 50° SSE 02:16:24 51° SSE 02:37:17 10° ENE visible
21 Apr 12.7 04:27:03 24° WSW 04:44:48 77° NW 05:01:52 10° NE visible
21 Apr 12.8 19:06:53 10° SW 19:10:07 12° SSW 19:13:46 10° S visible
22 Apr 14.0 00:22:00 17° ESE 00:22:00 17° ESE 00:27:30 10° ESE visible
22 Apr 12.9 02:34:47 57° S 02:38:53 62° SE 02:59:50 10° ENE visible
22 Apr 12.8 04:47:33 19° WSW 05:06:43 63° NW 05:23:03 10° NE visible
23 Apr 13.8 00:42:28 25° ESE 00:42:28 25° ESE 00:52:14 10° E visible
23 Apr 12.8 02:55:14 60° SSW 03:01:10 75° SE 03:21:56 10° ENE visible
23 Apr 13.0 05:08:01 13° WSW 05:28:40 50° NW 05:44:04 10° NNE visible
24 Apr 13.5 01:02:51 35° ESE 01:02:51 35° ESE 01:16:09 10° E visible
24 Apr 12.7 03:15:37 57° SW 03:23:20 90° SE 03:43:42 10° NE visible
24 Apr 13.1 05:29:45 10° W 05:50:44 39° NW 06:04:56 10° NNE visible
25 Apr 13.2 01:23:10 46° ESE 01:23:10 46° ESE 01:39:24 10° ENE visible
25 Apr 12.7 03:35:55 49° WSW 03:45:25 76° NW 04:05:12 10° NE visible
26 Apr 13.0 01:43:24 59° ESE 01:43:24 59° ESE 02:02:04 10° ENE visible
26 Apr 12.9 03:56:09 39° W 04:07:32 62° NW 04:26:29 10° NE visible
26 Apr 14.1 23:50:49 14° E 23:50:49 14° E 23:53:07 10° E visible
27 Apr 12.7 02:03:33 74° ESE 02:03:33 74° ESE 02:24:18 10° ENE visible
27 Apr 13.0 04:16:17 29° W 04:29:44 50° NW 04:47:36 10° NE visible
28 Apr 13.9 00:10:53 21° E 00:10:53 21° E 00:17:15 10° E visible
28 Apr 12.6 02:23:37 89° NNW 02:23:37 89° NNW 02:46:10 10° NE visible
28 Apr 13.3 04:36:21 21° W 04:52:05 40° NNW 05:08:37 10° NNE visible
